,,Stat6,,Stat2,,Stat8,,Stat9,,Stat10,,Wind1,,Wind1,
time,status,PA1M_AVG,status,PR1M_SUM,status,RH1M_AVG,status,SR1M_AVG,status,TA1M_AVG,status,W1dAve1m,status,W1sAve1m,
2008-03-20, 00:00:00,VALID,916.526,VALID,0,VALID,95.0931,VALID,-0.0509425,VALID,19.1216,VALID,159,VALID,0,
2008-03-20, 00:01:00,VALID,916.519,VALID,0,VALID,95.4263,VALID,-0.0679233,VALID,19.0824,VALID,152,VALID,0.0846037,
2008-03-20, 00:02:00,VALID,916.501,VALID,0,VALID,95.5713,VALID,-0.0339617,VALID,19.0699,VALID,166,VALID,0.00243056,
2008-03-20, 00:03:00,VALID,916.496,VALID,0,VALID,95.8981,VALID,0,VALID,19.0338,VALID,153,VALID,0,
2008-03-20, 00:04:00,VALID,916.484,VALID,0,VALID,96.0672,VALID,0,VALID,19.0008,VALID,131,VALID,1.08121,
2008-03-20, 00:05:00,VALID,916.475,VALID,0,VALID,96.3507,VALID,-0.0169808,VALID,18.9429,VALID,148,VALID,1.29518,
2008-03-20, 00:06:00,VALID,916.471,VALID,0,VALID,96.6089,VALID,-0.0169808,VALID,18.9205,VALID,149,VALID,1.03487,
2008-03-20, 00:07:00,VALID,916.469,VALID,0,VALID,96.8251,VALID,-0.0679233,VALID,18.8913,VALID,152,VALID,0.870486,
2008-03-20, 00:08:00,VALID,916.463,VALID,0,VALID,97.012,VALID,-0.0169808,VALID,18.8588,VALID,161,VALID,0.229307,
2008-03-20, 00:09:00,VALID,916.448,VALID,0,VALID,97.1519,VALID,-0.0509425,VALID,18.8294,VALID,145,VALID,0.444586,
2008-03-20, 00:10:00,VALID,916.451,VALID,0,VALID,97.2536,VALID,0,VALID,18.8199,VALID,141,VALID,0.768643,
2008-03-20, 00:11:00,VALID,916.437,VALID,0,VALID,97.349,VALID,-0.0509425,VALID,18.8004,VALID,134,VALID,1.54102,
2008-03-20, 00:12:00,VALID,916.405,VALID,0,VALID,97.4164,VALID,-0.0339617,VALID,18.7872,VALID,147,VALID,1.21999,
2008-03-20, 00:13:00,VALID,916.392,VALID,0,VALID,97.5283,VALID,-0.0169808,VALID,18.7775,VALID,151,VALID,1.23633,
2008-03-20, 00:14:00,VALID,916.371,VALID,0,VALID,97.6325,VALID,-0.0169808,VALID,18.771,VALID,151,VALID,1.25355,
2008-03-20, 00:15:00,VALID,916.353,VALID,0,VALID,97.6986,VALID,-0.0849042,VALID,18.7615,VALID,146,VALID,1.23846,
2008-03-20, 00:16:00,VALID,916.348,VALID,0,VALID,97.6859,VALID,-0.0339617,VALID,18.7488,VALID,140,VALID,1.75781,
2008-03-20, 00:17:00,VALID,916.324,VALID,0,VALID,97.7101,VALID,-0.0339617,VALID,18.7418,VALID,152,VALID,1.53852,
2008-03-20, 00:18:00,VALID,916.314,VALID,0,VALID,97.7635,VALID,-0.0169808,VALID,18.7418,VALID,156,VALID,1.6782,
2008-03-20, 00:19:00,VALID,916.301,VALID,0,VALID,97.7215,VALID,-0.0339617,VALID,18.7488,VALID,164,VALID,1.47526,
2008-03-20, 00:20:00,VALID,916.293,VALID,0.2,VALID,97.7889,VALID,0,VALID,18.7548,VALID,159,VALID,1.23152,
2008-03-20, 00:21:00,VALID,916.289,VALID,0,VALID,97.7622,VALID,-0.0169808,VALID,18.7645,VALID,151,VALID,1.76793,
2008-03-20, 00:22:00,VALID,916.265,VALID,0,VALID,97.808,VALID,-0.0169808,VALID,18.7546,VALID,155,VALID,1.33575,
2008-03-20, 00:23:00,VALID,916.252,VALID,0,VALID,97.822,VALID,0,VALID,18.758,VALID,142,VALID,1.63073,
2008-03-20, 00:24:00,VALID,916.241,VALID,0,VALID,97.8792,VALID,-0.0169808,VALID,18.7446,VALID,149,VALID,0.984375,
2008-03-20, 00:25:00,VALID,916.229,VALID,0,VALID,98,VALID,-0.0509425,VALID,18.7386,VALID,165,VALID,1.23456,
2008-03-20, 00:26:00,VALID,916.205,VALID,0,VALID,98.0865,VALID,-0.0339617,VALID,18.7156,VALID,167,VALID,1.60528,
2008-03-20, 00:27:00,VALID,916.193,VALID,0,VALID,98.2048,VALID,-0.0169808,VALID,18.7124,VALID,164,VALID,0.921113,
2008-03-20, 00:28:00,VALID,916.183,VALID,0,VALID,98.3701,VALID,0,VALID,18.6992,VALID,166,VALID,1.0364,
2008-03-20, 00:29:00,VALID,916.164,VALID,0,VALID,98.468,VALID,0,VALID,18.7022,VALID,155,VALID,1.61309,
2008-03-20, 00:30:00,VALID,916.154,VALID,0,VALID,98.6206,VALID,-0.0509425,VALID,18.6827,VALID,159,VALID,1.47293,
2008-03-20, 00:31:00,VALID,916.133,VALID,0,VALID,98.7503,VALID,-0.0169808,VALID,18.6867,VALID,153,VALID,1.24466,
2008-03-20, 00:32:00,VALID,916.128,VALID,0,VALID,98.9245,VALID,-0.0169808,VALID,18.6804,VALID,177,VALID,1.37671,
2008-03-20, 00:33:00,VALID,916.103,VALID,0,VALID,98.9728,VALID,0,VALID,18.6698,VALID,164,VALID,1.24498,
2008-03-20, 00:34:00,VALID,916.102,VALID,0,VALID,99.0504,VALID,-0.0169808,VALID,18.6832,VALID,169,VALID,1.12518,
2008-03-20, 00:35:00,VALID,916.094,VALID,0,VALID,99.1178,VALID,-0.0169808,VALID,18.6762,VALID,177,VALID,1.24423,
2008-03-20, 00:36:00,VALID,916.086,VALID,0,VALID,99.1445,VALID,-0.0169808,VALID,18.6894,VALID,154,VALID,0.919643,
2008-03-20, 00:37:00,VALID,916.07,VALID,0,VALID,99.1788,VALID,0,VALID,18.6762,VALID,173,VALID,1.39151,
2008-03-20, 00:38:00,VALID,916.071,VALID,0,VALID,99.2335,VALID,0,VALID,18.68,VALID,163,VALID,1.15078,
2008-03-20, 00:39:00,VALID,916.063,VALID,0,VALID,99.2386,VALID,0.0169808,VALID,18.683,VALID,179,VALID,1.00515,
2008-03-20, 00:40:00,VALID,916.045,VALID,0,VALID,99.2742,VALID,-0.0169808,VALID,18.6837,VALID,183,VALID,0.931141,
2008-03-20, 00:41:00,VALID,916.037,VALID,0,VALID,99.3098,VALID,0,VALID,18.6732,VALID,187,VALID,0.894176,
2008-03-20, 00:42:00,VALID,916.029,VALID,0,VALID,99.3657,VALID,-0.0169808,VALID,18.6667,VALID,158,VALID,0.986861,
2008-03-20, 00:43:00,VALID,916.018,VALID,0,VALID,99.4026,VALID,0,VALID,18.6667,VALID,168,VALID,0.869093,
2008-03-20, 00:44:00,VALID,916.001,VALID,0,VALID,99.5081,VALID,0,VALID,18.6535,VALID,169,VALID,0.621875,
2008-03-20, 00:45:00,VALID,915.989,VALID,0,VALID,99.5806,VALID,0,VALID,18.6468,VALID,177,VALID,0.430078,
2008-03-20, 00:46:00,VALID,915.981,VALID,0,VALID,99.6302,VALID,0,VALID,18.644,VALID,177,VALID,0.210938,
2008-03-20, 00:47:00,VALID,915.977,VALID,0,VALID,99.7167,VALID,0.0169808,VALID,18.6311,VALID,181,VALID,0.0993056,
2008-03-20, 00:48:00,VALID,915.981,VALID,0,VALID,99.7866,VALID,0,VALID,18.6278,VALID,179,VALID,0.659766,
2008-03-20, 00:49:00,VALID,915.965,VALID,0,VALID,99.854,VALID,-0.0169808,VALID,18.6241,VALID,188,VALID,0.84654,
2008-03-20, 00:50:00,VALID,915.96,VALID,0,VALID,99.8858,VALID,0,VALID,18.6341,VALID,182,VALID,0,
2008-03-20, 00:51:00,VALID,915.959,VALID,0,VALID,99.9265,VALID,0.0169808,VALID,18.651,VALID,174,VALID,0.503049,
2008-03-20, 00:52:00,VALID,915.951,VALID,0,VALID,99.8896,VALID,0,VALID,18.641,VALID,185,VALID,0.365885,
2008-03-20, 00:53:00,VALID,915.957,VALID,0,VALID,99.8973,VALID,0,VALID,18.6338,VALID,184,VALID,0.208394,
2008-03-20, 00:54:00,VALID,915.955,VALID,0,VALID,99.9125,VALID,0.0169808,VALID,18.6306,VALID,166,VALID,0.706676,
2008-03-20, 00:55:00,VALID,915.952,VALID,0,VALID,99.943,VALID,0,VALID,18.6373,VALID,178,VALID,0.670422,
2008-03-20, 00:56:00,VALID,915.945,VALID,0,VALID,99.8934,VALID,-0.0169808,VALID,18.647,VALID,172,VALID,1.16602,
2008-03-20, 00:57:00,VALID,915.942,VALID,0,VALID,99.8667,VALID,0,VALID,18.657,VALID,177,VALID,1.20785,
2008-03-20, 00:58:00,VALID,915.942,VALID,0,VALID,99.8413,VALID,-0.0169808,VALID,18.6804,VALID,177,VALID,1.46675,
2008-03-20, 00:59:00,VALID,915.932,VALID,0,VALID,99.7345,VALID,0,VALID,18.6795,VALID,180,VALID,2.22731,
2008-03-20, 01:00:00,VALID,915.928,VALID,0,VALID,99.6264,VALID,0,VALID,18.6955,VALID,161,VALID,1.07322,
2008-03-20, 01:01:00,VALID,915.917,VALID,0,VALID,99.5628,VALID,0,VALID,18.7154,VALID,162,VALID,0.446484,
2008-03-20, 01:02:00,VALID,915.906,VALID,0,VALID,99.5336,VALID,0,VALID,18.7154,VALID,165,VALID,0.34096,
2008-03-20, 01:03:00,VALID,915.895,VALID,0,VALID,99.5209,VALID,0,VALID,18.7194,VALID,183,VALID,0.594097,
2008-03-20, 01:04:00,VALID,915.88,VALID,0,VALID,99.5565,VALID,0,VALID,18.7027,VALID,155,VALID,1.23455,
2008-03-20, 01:05:00,VALID,915.88,VALID,0,VALID,99.5692,VALID,-0.0339617,VALID,18.7189,VALID,147,VALID,1.68605,
2008-03-20, 01:06:00,VALID,915.867,VALID,0,VALID,99.5603,VALID,-0.0169808,VALID,18.7091,VALID,171,VALID,1.67598,
2008-03-20, 01:07:00,VALID,915.855,VALID,0,VALID,99.5514,VALID,-0.0339617,VALID,18.7189,VALID,157,VALID,1.58152,
2008-03-20, 01:08:00,VALID,915.838,VALID,0,VALID,99.5399,VALID,-0.0169808,VALID,18.702,VALID,158,VALID,1.77184,
2008-03-20, 01:09:00,VALID,915.856,VALID,0,VALID,99.4675,VALID,-0.0169808,VALID,18.7316,VALID,155,VALID,1.8543,
2008-03-20, 01:10:00,VALID,915.847,VALID,0,VALID,99.3632,VALID,-0.0169808,VALID,18.7379,VALID,168,VALID,1.85547,
2008-03-20, 01:11:00,VALID,915.823,VALID,0,VALID,99.2704,VALID,-0.0169808,VALID,18.758,VALID,156,VALID,1.36719,
2008-03-20, 01:12:00,VALID,915.837,VALID,0,VALID,99.2462,VALID,-0.0509425,VALID,18.7648,VALID,158,VALID,2.41648,
2008-03-20, 01:13:00,VALID,915.825,VALID,0,VALID,99.1483,VALID,0,VALID,18.764,VALID,156,VALID,2.42932,
2008-03-20, 01:14:00,VALID,915.819,VALID,0,VALID,99.0377,VALID,-0.0169808,VALID,18.79,VALID,158,VALID,2.39769,
2008-03-20, 01:15:00,VALID,915.804,VALID,0,VALID,98.9652,VALID,0,VALID,18.8004,VALID,163,VALID,2.20703,
2008-03-20, 01:16:00,VALID,915.8,VALID,0,VALID,98.9359,VALID,-0.0169808,VALID,18.8102,VALID,151,VALID,1.14116,
2008-03-20, 01:17:00,VALID,915.783,VALID,0,VALID,98.9372,VALID,-0.0339617,VALID,18.8067,VALID,161,VALID,1.23668,
2008-03-20, 01:18:00,VALID,915.754,VALID,0,VALID,98.9931,VALID,-0.0679233,VALID,18.8039,VALID,162,VALID,1.12682,
2008-03-20, 01:19:00,VALID,915.75,VALID,0,VALID,99.016,VALID,-0.0339617,VALID,18.7942,VALID,160,VALID,1.32129,
2008-03-20, 01:20:00,VALID,915.728,VALID,0,VALID,99.0453,VALID,-0.0679233,VALID,18.7845,VALID,151,VALID,1.23757,
2008-03-20, 01:21:00,VALID,915.734,VALID,0,VALID,99.119,VALID,-0.0849042,VALID,18.7712,VALID,159,VALID,1.44513,
2008-03-20, 01:22:00,VALID,915.715,VALID,0,VALID,99.208,VALID,-0.0509425,VALID,18.7618,VALID,157,VALID,1.64063,
2008-03-20, 01:23:00,VALID,915.702,VALID,0,VALID,99.3098,VALID,-0.101885,VALID,18.7455,VALID,149,VALID,1.7342,
2008-03-20, 01:24:00,VALID,915.692,VALID,0,VALID,99.3848,VALID,-0.0679233,VALID,18.752,VALID,150,VALID,1.81548,
2008-03-20, 01:25:00,VALID,915.697,VALID,0,VALID,99.3505,VALID,-0.0679233,VALID,18.7578,VALID,165,VALID,1.90461,
2008-03-20, 01:26:00,VALID,915.68,VALID,0,VALID,99.3276,VALID,-0.0849042,VALID,18.7618,VALID,151,VALID,1.71275,
2008-03-20, 01:27:00,VALID,915.679,VALID,0,VALID,99.3072,VALID,-0.0169808,VALID,18.7678,VALID,152,VALID,0.906977,
2008-03-20, 01:28:00,VALID,915.66,VALID,0,VALID,99.2831,VALID,-0.0679233,VALID,18.7678,VALID,147,VALID,1.90589,
2008-03-20, 01:29:00,VALID,915.647,VALID,0,VALID,99.2271,VALID,-0.0169808,VALID,18.7745,VALID,147,VALID,1.83724,
2008-03-20, 01:30:00,VALID,915.628,VALID,0,VALID,99.2729,VALID,-0.0169808,VALID,18.7745,VALID,150,VALID,1.37805,
2008-03-20, 01:31:00,VALID,915.617,VALID,0,VALID,99.3072,VALID,-0.0169808,VALID,18.7648,VALID,170,VALID,0.564862,
2008-03-20, 01:32:00,VALID,915.597,VALID,0,VALID,99.3683,VALID,-0.0679233,VALID,18.7618,VALID,149,VALID,1.05778,
2008-03-20, 01:33:00,VALID,915.578,VALID,0,VALID,99.428,VALID,-0.0509425,VALID,18.7455,VALID,148,VALID,1.31977,
2008-03-20, 01:34:00,VALID,915.565,VALID,0,VALID,99.4751,VALID,-0.0169808,VALID,18.7455,VALID,159,VALID,1.29836,
2008-03-20, 01:35:00,VALID,915.551,VALID,0,VALID,99.5234,VALID,-0.0509425,VALID,18.7386,VALID,153,VALID,1.12969,
2008-03-20, 01:36:00,VALID,915.534,VALID,0,VALID,99.5488,VALID,-0.0509425,VALID,18.7291,VALID,146,VALID,1.66597,
2008-03-20, 01:37:01,VALID,915.529,VALID,0,VALID,99.5984,VALID,-0.0169808,VALID,18.7258,VALID,144,VALID,1.15625,
2008-03-20, 01:38:00,VALID,915.511,VALID,0,VALID,99.6544,VALID,-0.0339617,VALID,18.7061,VALID,141,VALID,1.38263,
2008-03-20, 01:39:00,VALID,915.499,VALID,0,VALID,99.7281,VALID,-0.0679233,VALID,18.6997,VALID,156,VALID,0.625744,
2008-03-20, 01:40:00,VALID,915.485,VALID,0,VALID,99.7955,VALID,-0.0339617,VALID,18.6936,VALID,149,VALID,1.4871,
2008-03-20, 01:41:01,VALID,915.465,VALID,0,VALID,99.8121,VALID,-0.0509425,VALID,18.6837,VALID,147,VALID,1.84253,
2008-03-20, 01:42:00,VALID,915.461,VALID,0,VALID,99.8438,VALID,-0.0509425,VALID,18.6872,VALID,147,VALID,1.35701,
2008-03-20, 01:43:00,VALID,915.441,VALID,0,VALID,99.8489,VALID,-0.0509425,VALID,18.6839,VALID,150,VALID,1.4495,
2008-03-20, 01:44:00,VALID,915.428,VALID,0,VALID,99.8248,VALID,-0.0509425,VALID,18.6834,VALID,140,VALID,1.64528,
2008-03-20, 01:45:00,VALID,915.419,VALID,0,VALID,99.7904,VALID,-0.0509425,VALID,18.6837,VALID,145,VALID,1.66845,
2008-03-20, 01:46:00,VALID,915.408,VALID,0,VALID,99.7968,VALID,-0.0509425,VALID,18.6872,VALID,149,VALID,1.33368,
2008-03-20, 01:47:00,VALID,915.429,VALID,0,VALID,99.8159,VALID,-0.0849042,VALID,18.6904,VALID,148,VALID,1.72106,
2008-03-20, 01:48:01,VALID,915.401,VALID,0,VALID,99.8413,VALID,-0.0509425,VALID,18.6902,VALID,165,VALID,1.35138,
2008-03-20, 01:49:00,VALID,915.39,VALID,0,VALID,99.8769,VALID,0.0339617,VALID,18.6857,VALID,160,VALID,1.65801,
2008-03-20, 01:50:00,VALID,915.377,VALID,0,VALID,99.8871,VALID,0.0169808,VALID,18.6825,VALID,157,VALID,1.46949,
2008-03-20, 01:51:01,VALID,915.368,VALID,0,VALID,99.8934,VALID,0.0339617,VALID,18.6857,VALID,142,VALID,1.11055,
2008-03-20, 01:52:00,VALID,915.346,VALID,0,VALID,99.8973,VALID,0,VALID,18.679,VALID,149,VALID,1.10671,
2008-03-20, 01:53:01,VALID,915.333,VALID,0,VALID,99.9176,VALID,0,VALID,18.6825,VALID,152,VALID,1.66424,
2008-03-20, 01:54:00,VALID,915.324,VALID,0,VALID,99.8769,VALID,0.0339617,VALID,18.6857,VALID,158,VALID,1.55621,
2008-03-20, 01:55:00,VALID,915.307,VALID,0,VALID,99.8349,VALID,0.0169808,VALID,18.689,VALID,153,VALID,2.14297,
2008-03-20, 01:56:00,VALID,915.289,VALID,0,VALID,99.6684,VALID,0.0169808,VALID,18.7316,VALID,151,VALID,1.62627,
2008-03-20, 01:57:00,VALID,915.282,VALID,0,VALID,99.47,VALID,0,VALID,18.7538,VALID,160,VALID,1.60374,
2008-03-20, 01:58:01,VALID,915.261,VALID,0,VALID,99.3721,VALID,0.0339617,VALID,18.7701,VALID,145,VALID,1.47313,
2008-03-20, 01:59:00,VALID,915.254,VALID,0,VALID,99.3327,VALID,0,VALID,18.7763,VALID,156,VALID,1.43461,
2008-03-20, 02:00:00,VALID,915.248,VALID,0,VALID,99.2424,VALID,0,VALID,18.7993,VALID,155,VALID,2.04913,
2008-03-20, 02:01:00,VALID,915.229,VALID,0,VALID,99.0872,VALID,0.0339617,VALID,18.8252,VALID,147,VALID,1.43255,
2008-03-20, 02:02:01,VALID,915.225,VALID,0,VALID,98.9944,VALID,0.0509425,VALID,18.8412,VALID,154,VALID,1.82138,
2008-03-20, 02:03:00,VALID,915.206,VALID,0,VALID,98.899,VALID,0.0169808,VALID,18.8614,VALID,162,VALID,1.33557,
2008-03-20, 02:04:00,VALID,915.196,VALID,0,VALID,98.8253,VALID,-0.101885,VALID,18.8591,VALID,137,VALID,2.00945,
2008-03-20, 02:05:00,VALID,915.185,VALID,0,VALID,98.7986,VALID,-0.101885,VALID,18.869,VALID,131,VALID,1.4253,
2008-03-20, 02:06:00,VALID,915.171,VALID,0,VALID,98.7986,VALID,-0.0849042,VALID,18.8556,VALID,130,VALID,1.63317,
2008-03-20, 02:07:00,VALID,915.161,VALID,0,VALID,98.866,VALID,-0.101885,VALID,18.8528,VALID,139,VALID,1.20052,
2008-03-20, 02:08:00,VALID,915.135,VALID,0,VALID,98.9258,VALID,-0.101885,VALID,18.8331,VALID,134,VALID,1.81678,
2008-03-20, 02:09:00,VALID,915.118,VALID,0,VALID,98.9817,VALID,-0.101885,VALID,18.8331,VALID,130,VALID,2.30629,
2008-03-20, 02:10:00,VALID,915.088,VALID,0,VALID,98.9728,VALID,-0.101885,VALID,18.8398,VALID,116,VALID,2.38245,
2008-03-20, 02:11:00,VALID,915.091,VALID,0,VALID,98.8367,VALID,-0.101885,VALID,18.8656,VALID,120,VALID,2.19785,
2008-03-20, 02:12:01,VALID,915.075,VALID,0,VALID,98.6676,VALID,-0.0169808,VALID,18.8783,VALID,133,VALID,2.1654,
2008-03-20, 02:13:00,VALID,915.063,VALID,0,VALID,98.5786,VALID,-0.118866,VALID,18.8915,VALID,133,VALID,1.98828,
2008-03-20, 02:14:00,VALID,915.054,VALID,0,VALID,98.5697,VALID,-0.0509425,VALID,18.8883,VALID,123,VALID,2.52969,
2008-03-20, 02:15:00,VALID,915.028,VALID,0,VALID,98.4158,VALID,-0.101885,VALID,18.8947,VALID,121,VALID,3.21037,
2008-03-20, 02:16:00,VALID,915.025,VALID,0,VALID,98.2187,VALID,-0.0679233,VALID,18.9269,VALID,118,VALID,1.6875,
2008-03-20, 02:17:01,VALID,915.021,VALID,0,VALID,98.1501,VALID,-0.0509425,VALID,18.9369,VALID,111,VALID,2.50363,
2008-03-20, 02:18:00,VALID,915.024,VALID,0,VALID,98.1221,VALID,-0.0849042,VALID,18.9334,VALID,133,VALID,1.84884,
2008-03-20, 02:19:00,VALID,915.01,VALID,0,VALID,98.0369,VALID,-0.0509425,VALID,18.936,VALID,115,VALID,2.83368,
2008-03-20, 02:20:00,VALID,914.999,VALID,0,VALID,97.8474,VALID,-0.0169808,VALID,18.9716,VALID,122,VALID,2.19779,
2008-03-20, 02:21:00,VALID,914.992,VALID,0,VALID,97.7393,VALID,-0.0339617,VALID,18.9784,VALID,143,VALID,2.51544,
2008-03-20, 02:22:01,VALID,914.972,VALID,0,VALID,97.6363,VALID,-0.0339617,VALID,18.9881,VALID,134,VALID,2.62604,
2008-03-20, 02:23:00,VALID,914.958,VALID,0,VALID,97.5359,VALID,-0.0339617,VALID,19.0043,VALID,132,VALID,2.39658,
2008-03-20, 02:24:00,VALID,914.946,VALID,0,VALID,97.4939,VALID,-0.0169808,VALID,19.0168,VALID,151,VALID,2.10326,
2008-03-20, 02:25:00,VALID,914.924,VALID,0,VALID,97.4456,VALID,-0.0339617,VALID,19.0133,VALID,162,VALID,1.88228,
2008-03-20, 02:26:01,VALID,914.912,VALID,0,VALID,97.3706,VALID,-0.0169808,VALID,19.0235,VALID,151,VALID,1.66134,
2008-03-20, 02:27:01,VALID,914.913,VALID,0,VALID,97.3413,VALID,-0.0509425,VALID,19.0303,VALID,127,VALID,1.25037,
2008-03-20, 02:28:01,VALID,914.899,VALID,0,VALID,97.293,VALID,0,VALID,19.04,VALID,142,VALID,2.88151,
2008-03-20, 02:29:01,VALID,914.909,VALID,0,VALID,97.2714,VALID,0,VALID,19.0462,VALID,153,VALID,2.40396,
2008-03-20, 02:30:01,VALID,914.922,VALID,0,VALID,97.2053,VALID,-0.0339617,VALID,19.0687,VALID,128,VALID,2.17678,
2008-03-20, 02:31:01,VALID,914.907,VALID,0,VALID,96.9904,VALID,-0.0169808,VALID,19.1433,VALID,111,VALID,2.15425,
2008-03-20, 02:32:01,VALID,914.89,VALID,0,VALID,96.4296,VALID,-0.0339617,VALID,19.2374,VALID,150,VALID,1.48492,
2008-03-20, 02:33:01,VALID,914.886,VALID,0,VALID,96.2795,VALID,0,VALID,19.2441,VALID,139,VALID,1.54062,
2008-03-20, 02:34:01,VALID,914.884,VALID,0,VALID,96.4436,VALID,0,VALID,19.1985,VALID,152,VALID,2.09877,
2008-03-20, 02:35:01,VALID,914.872,VALID,0,VALID,96.6839,VALID,0,VALID,19.1595,VALID,146,VALID,2.09691,
2008-03-20, 02:36:00,VALID,914.859,VALID,0,VALID,96.8276,VALID,-0.0169808,VALID,19.1403,VALID,154,VALID,2.71596,
2008-03-20, 02:37:00,VALID,914.858,VALID,0,VALID,96.8403,VALID,-0.0509425,VALID,19.1438,VALID,157,VALID,1.72786,
2008-03-20, 02:38:00,VALID,914.842,VALID,0,VALID,96.8276,VALID,-0.0679233,VALID,19.1438,VALID,153,VALID,2.12089,
2008-03-20, 02:39:00,VALID,914.854,VALID,0,VALID,96.7793,VALID,-0.0169808,VALID,19.1466,VALID,139,VALID,1.97148,
2008-03-20, 02:40:00,VALID,914.841,VALID,0,VALID,96.8416,VALID,0,VALID,19.1406,VALID,152,VALID,1.42035,
2008-03-20, 02:41:00,VALID,914.834,VALID,0,VALID,96.9598,VALID,-0.0169808,VALID,19.1074,VALID,157,VALID,2.07322,
2008-03-20, 02:42:00,VALID,914.835,VALID,0,VALID,97.073,VALID,-0.0169808,VALID,19.0947,VALID,161,VALID,2.69643,
2008-03-20, 02:43:00,VALID,914.852,VALID,0,VALID,97.1468,VALID,-0.0339617,VALID,19.0919,VALID,153,VALID,1.80525,
2008-03-20, 02:44:00,VALID,914.839,VALID,0,VALID,97.2205,VALID,-0.0849042,VALID,19.0757,VALID,154,VALID,1.63322,
2008-03-20, 02:45:00,VALID,914.841,VALID,0,VALID,97.3006,VALID,-0.0339617,VALID,19.0625,VALID,158,VALID,1.22904,
2008-03-20, 02:46:00,VALID,914.824,VALID,0,VALID,97.3935,VALID,-0.0509425,VALID,19.0465,VALID,155,VALID,1.67696,
2008-03-20, 02:47:00,VALID,914.824,VALID,0,VALID,97.499,VALID,0,VALID,19.0265,VALID,141,VALID,1.36882,
2008-03-20, 02:48:00,VALID,914.824,VALID,0,VALID,97.5372,VALID,-0.0339617,VALID,19.0205,VALID,157,VALID,2.59826,
2008-03-20, 02:49:00,VALID,914.821,VALID,0,VALID,97.5562,VALID,-0.0849042,VALID,19.0036,VALID,157,VALID,2.80796,
2008-03-20, 02:50:00,VALID,914.788,VALID,0,VALID,97.5524,VALID,-0.0509425,VALID,19.0208,VALID,148,VALID,2.19005,
2008-03-20, 02:51:00,VALID,914.782,VALID,0,VALID,97.5511,VALID,-0.0849042,VALID,19.0243,VALID,146,VALID,1.73772,
2008-03-20, 02:52:00,VALID,914.784,VALID,0,VALID,97.6033,VALID,-0.0509425,VALID,19.024,VALID,153,VALID,2.39342,
2008-03-20, 02:53:00,VALID,914.78,VALID,0,VALID,97.6783,VALID,-0.0169808,VALID,18.9911,VALID,143,VALID,2.21892,
2008-03-20, 02:54:00,VALID,914.777,VALID,0,VALID,97.6313,VALID,-0.0509425,VALID,19.0008,VALID,144,VALID,2.60211,
2008-03-20, 02:55:00,VALID,914.769,VALID,0,VALID,97.5066,VALID,-0.0849042,VALID,19.0173,VALID,144,VALID,1.79173,
2008-03-20, 02:56:00,VALID,914.756,VALID,0,VALID,97.3896,VALID,-0.0509425,VALID,19.027,VALID,145,VALID,2.15104,
2008-03-20, 02:57:00,VALID,914.752,VALID,0,VALID,97.3439,VALID,-0.0849042,VALID,19.024,VALID,149,VALID,2.04771,
2008-03-20, 02:58:00,VALID,914.755,VALID,0,VALID,97.3655,VALID,-0.0339617,VALID,19.0008,VALID,142,VALID,2.5451,
2008-03-20, 02:59:00,VALID,914.756,VALID,0,VALID,97.3172,VALID,-0.0339617,VALID,18.9951,VALID,152,VALID,1.66836,
2008-03-20, 03:00:00,VALID,914.745,VALID,0,VALID,97.2663,VALID,-0.0849042,VALID,18.9883,VALID,159,VALID,1.94382,
2008-03-20, 03:01:00,VALID,914.736,VALID,0,VALID,97.1315,VALID,-0.0509425,VALID,18.9746,VALID,152,VALID,2.44531,
2008-03-20, 03:02:00,VALID,914.741,VALID,0,VALID,97.0489,VALID,-0.0509425,VALID,19.0106,VALID,142,VALID,2.08049,
2008-03-20, 03:03:00,VALID,914.729,VALID,0,VALID,96.9331,VALID,0,VALID,19.0233,VALID,141,VALID,1.94606,
2008-03-20, 03:04:00,VALID,914.719,VALID,0,VALID,96.6776,VALID,0.0509425,VALID,19.0388,VALID,150,VALID,1.90425,
2008-03-20, 03:05:00,VALID,914.718,VALID,0,VALID,96.5669,VALID,0.0679233,VALID,19.0645,VALID,138,VALID,2,
2008-03-20, 03:06:00,VALID,914.717,VALID,0,VALID,96.5275,VALID,0.0679233,VALID,19.0805,VALID,143,VALID,1.81555,
2008-03-20, 03:07:00,VALID,914.706,VALID,0,VALID,96.5211,VALID,0.0679233,VALID,19.077,VALID,153,VALID,1.88027,
2008-03-20, 03:08:00,VALID,914.69,VALID,0,VALID,96.4423,VALID,0.0849042,VALID,19.0837,VALID,136,VALID,2.4008,
2008-03-20, 03:09:00,VALID,914.683,VALID,0,VALID,96.3304,VALID,0.101885,VALID,19.1002,VALID,137,VALID,1.75959,
2008-03-20, 03:10:00,VALID,914.669,VALID,0,VALID,96.2681,VALID,0.101885,VALID,19.0932,VALID,129,VALID,1.96946,
2008-03-20, 03:11:00,VALID,914.679,VALID,0,VALID,96.2388,VALID,0.0679233,VALID,19.0999,VALID,149,VALID,2.58418,
2008-03-20, 03:12:00,VALID,914.66,VALID,0,VALID,96.0087,VALID,0.0849042,VALID,19.1092,VALID,150,VALID,2.91816,
2008-03-20, 03:13:00,VALID,914.664,VALID,0,VALID,95.7327,VALID,0.0679233,VALID,19.1648,VALID,131,VALID,1.98242,
2008-03-20, 03:14:00,VALID,914.663,VALID,0,VALID,95.5484,VALID,0.0339617,VALID,19.1945,VALID,126,VALID,1.29323,
2008-03-20, 03:15:00,VALID,914.646,VALID,0,VALID,95.5242,VALID,0.0509425,VALID,19.1805,VALID,127,VALID,1.76816,
2008-03-20, 03:16:00,VALID,914.632,VALID,0,VALID,95.3068,VALID,0.0509425,VALID,19.1908,VALID,133,VALID,1.96243,
2008-03-20, 03:17:00,VALID,914.644,VALID,0,VALID,94.9952,VALID,0.0679233,VALID,19.2389,VALID,161,VALID,1.9098,
2008-03-20, 03:18:00,VALID,914.638,VALID,0,VALID,94.7612,VALID,0.0509425,VALID,19.2751,VALID,126,VALID,1.47965,
2008-03-20, 03:19:00,VALID,914.625,VALID,0,VALID,94.6125,VALID,-0.0509425,VALID,19.286,VALID,132,VALID,2.03706,
2008-03-20, 03:20:00,VALID,914.62,VALID,0,VALID,94.4713,VALID,-0.0339617,VALID,19.2958,VALID,134,VALID,2.26834,
2008-03-20, 03:21:00,VALID,914.613,VALID,0,VALID,94.381,VALID,-0.0679233,VALID,19.3088,VALID,130,VALID,1.46802,
2008-03-20, 03:22:00,VALID,914.619,VALID,0,VALID,94.3925,VALID,-0.0509425,VALID,19.312,VALID,149,VALID,1.41033,
2008-03-20, 03:23:00,VALID,914.592,VALID,0,VALID,94.4637,VALID,0,VALID,19.289,VALID,152,VALID,1.5099,
2008-03-20, 03:24:00,VALID,914.607,VALID,0,VALID,94.5451,VALID,-0.0509425,VALID,19.2728,VALID,151,VALID,2.14844,
2008-03-20, 03:25:00,VALID,914.595,VALID,0,VALID,94.5667,VALID,0,VALID,19.2693,VALID,146,VALID,1.17605,
2008-03-20, 03:26:00,VALID,914.59,VALID,0,VALID,94.5031,VALID,-0.0509425,VALID,19.2536,VALID,160,VALID,1.57867,
2008-03-20, 03:27:00,VALID,914.589,VALID,0,VALID,94.3454,VALID,-0.0169808,VALID,19.2898,VALID,170,VALID,2.42969,
2008-03-20, 03:28:00,VALID,914.581,VALID,0,VALID,94.1534,VALID,-0.0509425,VALID,19.302,VALID,140,VALID,1.41649,
2008-03-20, 03:29:00,VALID,914.572,VALID,0,VALID,94.053,VALID,0,VALID,19.3215,VALID,170,VALID,1.99396,
2008-03-20, 03:30:00,VALID,914.579,VALID,0,VALID,94.0631,VALID,-0.0509425,VALID,19.325,VALID,158,VALID,2.61445,
2008-03-20, 03:31:00,VALID,914.55,VALID,0,VALID,94.011,VALID,-0.0509425,VALID,19.3282,VALID,158,VALID,1.64719,
2008-03-20, 03:32:00,VALID,914.545,VALID,0,VALID,93.9754,VALID,-0.0509425,VALID,19.3315,VALID,149,VALID,1.52591,